00:02
Airports
History
Links
Donate
Help keep this website running!
PayPal
Bitcoin
This page is community maintained. The information is intended for PC simulator navigation or reference.
Always use approved charts for navigation.
SDPD
Pindamonhangaba
Pindamonhangaba (SDPD)
Pindamonhangaba, São Paulo, Brazil (12411)
4
Lat/Lng:22° 56' 37" S / 45° 25' 53" W
-22.943611 / -45.431389
Elevation:1919'ft / 585mMSL
ID / ICAO:SDPD
Runways:1
Longest:06-24
Grass 773m / 2,534ft
Nearby Weather22:00 GMT 2018-01-23
Nearby weather at SBGW, GUARATINGUETA located 17.8 nautical miles from SDPD
Altimeter: 29.94
Visibility: 6.2 statute miles
Wind: 6 knots (from 200°)
Temp: 22°c / 72°f
Humidity: 83.1%

METAR: SBGW 232200Z 20006KT 9999 FEW025 FEW030TCU SCT080 22/19 Q1014

(Powered by phpweather)
Runway 06 / 24
Dimensions:772.5 x 29.9m 2534' x 98'ft
Surface:Grass
Runway 06 [A]Runway 24 [B]
Heading:036°TH 216°TH
Lat:
Lng:
22° 56' 46.97"S
45° 26' 1.03"W
22° 56' 27.03"S
45° 25' 44.97"W
User Notes and Comments
22° 56' 37" S / 45° 25' 53" W
Distance To
Airport ID:
Nearby Airports
(U) FAZENDA SANTA HELENA 5.4 NM
SDZH NW 313°
(C) BASE DE AVIACAO DE TAUBATE 8.6 NM
SBTA SW 218°
4 Fazenda Maristela 10.9 NM
SDMA W 266°
(C) GUARATINGUETA 17.8 NM
SBGW ( WX ) NE 53°
4 Fazenda Centro de Voo a Vela Ipua 22.9 NM
SDIP WSW 252°
(C) Sao Jose Dos Campos 33.7 NM
SBSJ ( WX ) SW 234°
4 Helibras 35.6 NM
SIYS N 355°
VFR Chart
Flight Planning at SkyVector.com